GFA219 OBBI-OKKK

Flight info

Callsign GFA219
Flight time 0h 47m
Altitude 24000
Route BHR A453 DEBTI
Aircraft A320/M-SDE3FGHIRWY/LB1

Departure

Time 2026-04-28 13:08
Airport Bahrain International Airport (OBBI)

Arrival

Time 2026-04-28 13:56
Airport Kuwait International Airport (OKKK)
Time Latitude Longitude Altitude Speed Heading
2026-04-28 12:30 26.26892 50.62943 15 ft 0 kts 212°
2026-04-28 12:55 26.26910 50.62956 42 ft 4 kts 212°
2026-04-28 12:55 26.26934 50.62972 15 ft 4 kts 212°
2026-04-28 12:55 26.26952 50.62984 16 ft 4 kts 192°
2026-04-28 12:56 26.26976 50.62981 18 ft 4 kts 143°
2026-04-28 12:56 26.26989 50.62967 15 ft 0 kts 123°
2026-04-28 13:00 26.26973 50.62994 15 ft 11 kts 123°
2026-04-28 13:01 26.26932 50.63066 14 ft 10 kts 123°
2026-04-28 13:01 26.26912 50.63100 14 ft 2 kts 123°
2026-04-28 13:01 26.26908 50.63112 15 ft 1 kts 108°
2026-04-28 13:01 26.26910 50.63125 14 ft 3 kts 78°
2026-04-28 13:02 26.26926 50.63155 15 ft 6 kts 50°
2026-04-28 13:02 26.26953 50.63230 12 ft 14 kts 107°
2026-04-28 13:02 26.26899 50.63325 13 ft 15 kts 124°
2026-04-28 13:02 26.26836 50.63433 12 ft 18 kts 123°
2026-04-28 13:03 26.26766 50.63556 14 ft 20 kts 122°
2026-04-28 13:03 26.26693 50.63689 14 ft 21 kts 121°
2026-04-28 13:03 26.26610 50.63827 14 ft 23 kts 123°
2026-04-28 13:03 26.26524 50.63979 15 ft 24 kts 122°
2026-04-28 13:04 26.26432 50.64146 14 ft 26 kts 121°
2026-04-28 13:04 26.26332 50.64320 12 ft 27 kts 123°
2026-04-28 13:04 26.26228 50.64499 13 ft 28 kts 122°
2026-04-28 13:04 26.26119 50.64684 12 ft 29 kts 123°
2026-04-28 13:05 26.26028 50.64842 15 ft 17 kts 121°
2026-04-28 13:05 26.26024 50.64911 17 ft 0 kts 59°
2026-04-28 13:05 26.26036 50.64942 15 ft 10 kts 65°
2026-04-28 13:06 26.26087 50.64994 16 ft 11 kts 30°
2026-04-28 13:06 26.26152 50.64996 16 ft 7 kts 299°
2026-04-28 13:06 26.26159 50.64967 16 ft 0 kts 300°
2026-04-28 13:07 26.26174 50.64939 16 ft 21 kts 301°
2026-04-28 13:08 26.26411 50.64533 12 ft 99 kts 303°
2026-04-28 13:08 26.26891 50.63713 15 ft 155 kts 302°
2026-04-28 13:08 26.27540 50.62577 297 ft 177 kts 304°
2026-04-28 13:08 26.28190 50.61454 1056 ft 173 kts 308°
2026-04-28 13:09 26.28982 50.60396 1589 ft 188 kts 328°
2026-04-28 13:09 26.30249 50.59811 1991 ft 209 kts 345°
2026-04-28 13:09 26.31714 50.59402 2365 ft 228 kts 346°
2026-04-28 13:09 26.33354 50.59042 2697 ft 252 kts 347°
2026-04-28 13:10 26.35157 50.58698 3191 ft 271 kts 348°
2026-04-28 13:10 26.37039 50.58306 3945 ft 279 kts 344°
2026-04-28 13:10 26.38918 50.57797 4778 ft 283 kts 341°
2026-04-28 13:10 26.40838 50.57232 5629 ft 288 kts 340°
2026-04-28 13:11 26.42789 50.56642 6420 ft 293 kts 340°
2026-04-28 13:11 26.44766 50.56046 7222 ft 296 kts 340°
2026-04-28 13:11 26.46766 50.55449 8051 ft 299 kts 340°
2026-04-28 13:11 26.48789 50.54850 8899 ft 302 kts 340°
2026-04-28 13:12 26.50828 50.54248 9744 ft 305 kts 340°
2026-04-28 13:12 26.52901 50.53637 10314 ft 317 kts 340°
2026-04-28 13:12 26.55080 50.52992 10644 ft 336 kts 340°
2026-04-28 13:12 26.57362 50.52317 11283 ft 343 kts 341°
2026-04-28 13:13 26.59688 50.51635 12031 ft 346 kts 341°
2026-04-28 13:13 26.62031 50.50951 12800 ft 349 kts 341°
2026-04-28 13:13 26.64391 50.50260 13570 ft 353 kts 341°
2026-04-28 13:13 26.66774 50.49562 14250 ft 355 kts 341°
2026-04-28 13:14 26.69114 50.48700 14940 ft 353 kts 331°
2026-04-28 13:14 26.71237 50.47359 15631 ft 349 kts 320°
2026-04-28 13:14 26.73074 50.45609 16338 ft 346 kts 312°
2026-04-28 13:14 26.74823 50.43749 17048 ft 348 kts 312°
2026-04-28 13:15 26.76587 50.41880 17737 ft 350 kts 311°
2026-04-28 13:15 26.78339 50.40028 18405 ft 351 kts 311°
2026-04-28 13:15 26.80123 50.38144 18967 ft 354 kts 311°
2026-04-28 13:15 26.81925 50.36239 19491 ft 359 kts 310°
2026-04-28 13:16 26.83744 50.34311 20010 ft 363 kts 310°
2026-04-28 13:16 26.85590 50.32353 20528 ft 367 kts 310°
2026-04-28 13:16 26.87457 50.30372 21042 ft 371 kts 309°
2026-04-28 13:16 26.89343 50.28371 21555 ft 376 kts 309°
2026-04-28 13:17 26.91251 50.26346 22081 ft 380 kts 309°
2026-04-28 13:17 26.93177 50.24302 22606 ft 384 kts 308°
2026-04-28 13:17 26.95099 50.22259 23115 ft 387 kts 308°
2026-04-28 13:17 26.97062 50.20172 23570 ft 391 kts 308°
2026-04-28 13:18 26.99042 50.18064 23734 ft 394 kts 308°
2026-04-28 13:18 27.01017 50.15965 23787 ft 386 kts 308°
2026-04-28 13:18 27.02954 50.13913 23793 ft 381 kts 308°
2026-04-28 13:18 27.04853 50.11849 23794 ft 376 kts 304°
2026-04-28 13:19 27.06549 50.09639 23796 ft 374 kts 302°
2026-04-28 13:19 27.08231 50.07422 23808 ft 374 kts 302°
2026-04-28 13:19 27.09925 50.05191 23796 ft 375 kts 303°
2026-04-28 13:19 27.11596 50.02990 23792 ft 376 kts 303°
2026-04-28 13:20 27.13292 50.00759 23792 ft 376 kts 303°
2026-04-28 13:20 27.14986 49.98534 23796 ft 376 kts 303°
2026-04-28 13:20 27.16685 49.96303 23773 ft 376 kts 303°
2026-04-28 13:20 27.18381 49.94069 23772 ft 376 kts 303°
2026-04-28 13:21 27.20078 49.91831 23772 ft 376 kts 303°
2026-04-28 13:21 27.21776 49.89594 23776 ft 376 kts 303°
2026-04-28 13:21 27.23476 49.87356 23767 ft 376 kts 303°
2026-04-28 13:21 27.25176 49.85117 23769 ft 377 kts 303°
2026-04-28 13:22 27.26875 49.82877 23774 ft 377 kts 303°
2026-04-28 13:22 27.28551 49.80665 23776 ft 377 kts 303°
2026-04-28 13:22 27.30271 49.78392 23774 ft 377 kts 303°
2026-04-28 13:22 27.31948 49.76176 23776 ft 377 kts 303°
2026-04-28 13:23 27.33644 49.73932 23783 ft 377 kts 303°
2026-04-28 13:23 27.35337 49.71692 23782 ft 377 kts 303°
2026-04-28 13:23 27.37044 49.69443 23786 ft 377 kts 303°
2026-04-28 13:23 27.38753 49.67205 23812 ft 377 kts 303°
2026-04-28 13:24 27.40470 49.64972 23871 ft 378 kts 303°
2026-04-28 13:24 27.42199 49.62737 23933 ft 379 kts 304°
2026-04-28 13:24 27.43939 49.60501 23989 ft 380 kts 304°
2026-04-28 13:24 27.45664 49.58299 24075 ft 380 kts 304°
2026-04-28 13:25 27.47425 49.56067 24178 ft 381 kts 304°
2026-04-28 13:25 27.49195 49.53850 24263 ft 384 kts 306°
2026-04-28 13:25 27.51125 49.51751 24260 ft 388 kts 310°
2026-04-28 13:25 27.53203 49.49794 24129 ft 388 kts 314°
2026-04-28 13:26 27.55337 49.47950 23819 ft 388 kts 315°
2026-04-28 13:26 27.57504 49.46133 23749 ft 389 kts 315°
2026-04-28 13:26 27.59678 49.44299 23766 ft 391 kts 315°
2026-04-28 13:26 27.61842 49.42434 23761 ft 390 kts 314°
2026-04-28 13:27 27.63974 49.40554 23763 ft 390 kts 314°
2026-04-28 13:27 27.66097 49.38651 23761 ft 390 kts 314°
2026-04-28 13:27 27.68212 49.36739 23763 ft 390 kts 313°
2026-04-28 13:27 27.70295 49.34848 23765 ft 389 kts 313°
2026-04-28 13:28 27.72408 49.32932 23756 ft 390 kts 313°
2026-04-28 13:28 27.74523 49.31019 23781 ft 390 kts 314°
2026-04-28 13:28 27.76643 49.29109 23779 ft 390 kts 314°
2026-04-28 13:28 27.78769 49.27196 23778 ft 390 kts 314°
2026-04-28 13:29 27.80887 49.25291 23768 ft 390 kts 314°
2026-04-28 13:29 27.83008 49.23381 23768 ft 390 kts 314°
2026-04-28 13:29 27.85132 49.21464 23758 ft 397 kts 314°
2026-04-28 13:29 27.87337 49.19501 23762 ft 410 kts 317°
2026-04-28 13:30 27.89799 49.17801 23766 ft 418 kts 322°
2026-04-28 13:30 27.92326 49.16157 23762 ft 419 kts 323°
2026-04-28 13:30 27.94818 49.14538 23755 ft 419 kts 323°
2026-04-28 13:30 27.97340 49.12893 23758 ft 418 kts 323°
2026-04-28 13:31 28.02376 49.09590 23752 ft 418 kts 322°
2026-04-28 13:31 28.04892 49.07934 23756 ft 418 kts 322°
2026-04-28 13:31 28.07405 49.06281 23751 ft 417 kts 322°
2026-04-28 13:32 28.09914 49.04631 23757 ft 417 kts 322°
2026-04-28 13:32 28.12422 49.02979 23757 ft 417 kts 322°
2026-04-28 13:32 28.14928 49.01330 23756 ft 417 kts 322°
2026-04-28 13:32 28.17404 48.99702 23756 ft 417 kts 322°
2026-04-28 13:33 28.19916 48.98050 23491 ft 417 kts 323°
2026-04-28 13:33 28.22410 48.96409 23021 ft 413 kts 323°
2026-04-28 13:33 28.24890 48.94771 22463 ft 409 kts 323°
2026-04-28 13:33 28.27331 48.93154 21973 ft 406 kts 323°
2026-04-28 13:34 28.29766 48.91539 21455 ft 403 kts 323°
2026-04-28 13:34 28.32173 48.89948 21102 ft 399 kts 323°
2026-04-28 13:34 28.34579 48.88362 20866 ft 399 kts 323°
2026-04-28 13:34 28.36967 48.86784 20700 ft 397 kts 323°
2026-04-28 13:35 28.39355 48.85202 20474 ft 397 kts 323°
2026-04-28 13:35 28.41716 48.83637 20249 ft 387 kts 323°
2026-04-28 13:35 28.43976 48.82146 20124 ft 374 kts 323°
2026-04-28 13:35 28.46195 48.80681 19826 ft 367 kts 323°
2026-04-28 13:36 28.48394 48.79221 19437 ft 364 kts 323°
2026-04-28 13:36 28.50576 48.77768 19173 ft 363 kts 323°
2026-04-28 13:36 28.52745 48.76319 18917 ft 362 kts 323°
2026-04-28 13:36 28.54911 48.74869 18664 ft 360 kts 323°
2026-04-28 13:37 28.56980 48.73305 18416 ft 353 kts 314°
2026-04-28 13:37 28.58692 48.71364 18177 ft 344 kts 303°
2026-04-28 13:37 28.60127 48.69207 17925 ft 341 kts 301°
2026-04-28 13:37 28.61534 48.67081 17666 ft 340 kts 301°
2026-04-28 13:38 28.62960 48.64942 17455 ft 338 kts 301°
2026-04-28 13:38 28.64382 48.62814 17196 ft 336 kts 301°
2026-04-28 13:38 28.65789 48.60701 16940 ft 335 kts 301°
2026-04-28 13:38 28.67191 48.58589 16686 ft 334 kts 301°
2026-04-28 13:39 28.68585 48.56489 16435 ft 333 kts 301°
2026-04-28 13:39 28.69976 48.54390 16182 ft 331 kts 301°
2026-04-28 13:39 28.71361 48.52299 15932 ft 330 kts 301°
2026-04-28 13:39 28.72779 48.50242 15689 ft 332 kts 307°
2026-04-28 13:40 28.74524 48.48491 15447 ft 338 kts 320°
2026-04-28 13:40 28.76574 48.47137 15205 ft 341 kts 326°
2026-04-28 13:40 28.78637 48.45862 14969 ft 342 kts 326°
2026-04-28 13:40 28.80730 48.44565 14730 ft 342 kts 326°
2026-04-28 13:41 28.82825 48.43267 14493 ft 342 kts 326°
2026-04-28 13:41 28.84908 48.41973 14252 ft 342 kts 326°
2026-04-28 13:41 28.86996 48.40676 13937 ft 340 kts 326°
2026-04-28 13:41 28.89039 48.39410 13816 ft 329 kts 326°
2026-04-28 13:42 28.91030 48.38173 13585 ft 323 kts 326°
2026-04-28 13:42 28.92984 48.36956 13333 ft 317 kts 326°
2026-04-28 13:42 28.94908 48.35756 13077 ft 315 kts 326°
2026-04-28 13:42 28.96832 48.34556 12820 ft 313 kts 326°
2026-04-28 13:43 28.98708 48.33387 12620 ft 311 kts 326°
2026-04-28 13:43 29.00604 48.32205 12321 ft 311 kts 326°
2026-04-28 13:43 29.02505 48.31019 12021 ft 310 kts 326°
2026-04-28 13:43 29.04393 48.29845 11722 ft 309 kts 326°
2026-04-28 13:44 29.06278 48.28672 11432 ft 308 kts 326°
2026-04-28 13:44 29.08157 48.27503 11141 ft 307 kts 326°
2026-04-28 13:44 29.10027 48.26335 10834 ft 306 kts 326°
2026-04-28 13:44 29.11892 48.25169 10504 ft 304 kts 326°
2026-04-28 13:45 29.13742 48.24013 10185 ft 302 kts 326°
2026-04-28 13:45 29.15576 48.22864 9858 ft 299 kts 326°
2026-04-28 13:45 29.17371 48.21737 9539 ft 297 kts 326°
2026-04-28 13:45 29.19176 48.20602 9185 ft 294 kts 326°
2026-04-28 13:46 29.20955 48.19485 8826 ft 291 kts 326°
2026-04-28 13:46 29.22726 48.18376 8479 ft 289 kts 326°
2026-04-28 13:46 29.24473 48.17284 8135 ft 281 kts 326°
2026-04-28 13:46 29.26150 48.16241 7800 ft 268 kts 326°
2026-04-28 13:47 29.27755 48.15241 7462 ft 256 kts 326°
2026-04-28 13:47 29.29284 48.14286 7133 ft 246 kts 326°
2026-04-28 13:47 29.30774 48.13353 6807 ft 244 kts 325°
2026-04-28 13:47 29.32263 48.12416 6486 ft 245 kts 325°
2026-04-28 13:48 29.33735 48.11488 6173 ft 245 kts 326°
2026-04-28 13:48 29.35226 48.10551 5826 ft 244 kts 326°
2026-04-28 13:48 29.36715 48.09616 5494 ft 244 kts 326°
2026-04-28 13:48 29.38198 48.08681 5161 ft 243 kts 326°
2026-04-28 13:49 29.39673 48.07753 4823 ft 240 kts 326°
2026-04-28 13:49 29.41106 48.06855 4493 ft 230 kts 326°
2026-04-28 13:49 29.42460 48.05957 4152 ft 217 kts 315°
2026-04-28 13:49 29.43284 48.04640 3828 ft 198 kts 283°
2026-04-28 13:50 29.43595 48.03115 3494 ft 195 kts 273°
2026-04-28 13:50 29.43493 48.01604 3167 ft 189 kts 252°
2026-04-28 13:50 29.43119 48.00166 2822 ft 189 kts 250°
2026-04-28 13:50 29.42663 47.98745 2537 ft 189 kts 249°
2026-04-28 13:51 29.42214 47.97379 2429 ft 183 kts 249°
2026-04-28 13:51 29.41764 47.96018 2413 ft 182 kts 249°
2026-04-28 13:51 29.41315 47.94656 2208 ft 183 kts 249°
2026-04-28 13:51 29.40862 47.93287 1972 ft 183 kts 245°
2026-04-28 13:52 29.40081 47.92151 1736 ft 186 kts 220°
2026-04-28 13:52 29.38997 47.91348 1557 ft 185 kts 210°
2026-04-28 13:52 29.37754 47.90920 1501 ft 192 kts 193°
2026-04-28 13:52 29.36435 47.90787 1534 ft 185 kts 189°
2026-04-28 13:53 29.35176 47.90703 1513 ft 179 kts 188°
2026-04-28 13:53 29.33939 47.90888 1503 ft 186 kts 165°
2026-04-28 13:53 29.32796 47.91487 1496 ft 176 kts 161°
2026-04-28 13:53 29.31697 47.92080 1498 ft 170 kts 162°
2026-04-28 13:54 29.30642 47.92644 1451 ft 168 kts 162°
2026-04-28 13:54 29.29585 47.93207 1307 ft 167 kts 163°
2026-04-28 13:54 29.28558 47.93756 1137 ft 157 kts 163°
2026-04-28 13:54 29.27597 47.94268 938 ft 147 kts 159°
2026-04-28 13:55 29.26691 47.94750 757 ft 141 kts 156°
2026-04-28 13:55 29.25821 47.95210 580 ft 134 kts 152°
2026-04-28 13:55 29.24983 47.95661 400 ft 134 kts 153°
2026-04-28 13:55 29.24138 47.96110 241 ft 135 kts 153°
2026-04-28 13:56 29.23346 47.96537 181 ft 111 kts 152°
2026-04-28 13:56 29.22908 47.96772 182 ft 30 kts 155°
2026-04-28 13:56 29.22814 47.96818 182 ft 15 kts 157°
2026-04-28 13:56 29.22704 47.96873 183 ft 18 kts 156°
2026-04-28 13:57 29.22580 47.96939 197 ft 20 kts 154°
2026-04-28 13:57 29.22456 47.97009 189 ft 19 kts 153°
2026-04-28 13:57 29.22319 47.97082 202 ft 31 kts 155°
2026-04-28 13:57 29.22091 47.97205 190 ft 35 kts 154°
2026-04-28 13:58 29.21954 47.97350 195 ft 24 kts 124°
2026-04-28 13:58 29.21933 47.97414 189 ft 2 kts 105°
2026-04-28 13:58 29.21930 47.97426 190 ft 2 kts 105°
2026-04-28 13:58 29.21924 47.97452 185 ft 3 kts 102°
2026-04-28 13:59 29.21925 47.97459 193 ft 1 kts 84°
2026-04-28 13:59 29.21926 47.97462 193 ft 1 kts 82°
2026-04-28 13:59 29.21941 47.97496 183 ft 9 kts 40°
2026-04-28 13:59 29.22018 47.97480 182 ft 15 kts 338°
2026-04-28 14:00 29.22121 47.97426 181 ft 16 kts 334°
2026-04-28 14:00 29.22222 47.97371 180 ft 16 kts 334°
2026-04-28 14:00 29.22322 47.97315 179 ft 16 kts 334°
2026-04-28 14:00 29.22422 47.97271 177 ft 16 kts 339°
2026-04-28 14:01 29.22524 47.97227 175 ft 16 kts 339°
2026-04-28 14:01 29.22615 47.97164 174 ft 15 kts 336°
2026-04-28 14:01 29.22710 47.97115 173 ft 15 kts 335°
2026-04-28 14:01 29.22804 47.97066 171 ft 15 kts 335°
2026-04-28 14:02 29.22897 47.97015 170 ft 15 kts 335°
2026-04-28 14:02 29.22990 47.96965 169 ft 15 kts 334°
2026-04-28 14:02 29.23081 47.96916 168 ft 14 kts 334°
2026-04-28 14:02 29.23171 47.96868 167 ft 14 kts 336°
2026-04-28 14:03 29.23261 47.96823 165 ft 14 kts 336°
2026-04-28 14:03 29.23353 47.96776 164 ft 13 kts 336°
2026-04-28 14:03 29.23404 47.96813 162 ft 11 kts 68°
2026-04-28 14:03 29.23440 47.96907 160 ft 15 kts 65°
2026-04-28 14:04 29.23490 47.97027 159 ft 18 kts 64°
2026-04-28 14:04 29.23550 47.97170 158 ft 21 kts 67°
2026-04-28 14:04 29.23608 47.97336 156 ft 24 kts 69°
2026-04-28 14:04 29.23671 47.97464 154 ft 11 kts
2026-04-28 14:05 29.23742 47.97439 153 ft 11 kts 338°
2026-04-28 14:05 29.23777 47.97382 153 ft 9 kts 289°
2026-04-28 14:05 29.23808 47.97344 153 ft 5 kts 330°
2026-04-28 14:05 29.23811 47.97319 153 ft 2 kts 269°
2026-04-28 14:06 29.23806 47.97294 153 ft 0 kts 241°